Weather in Reutovo

Russia / Oryol Oblast     53°25′15″N   35°40′48″E
temp.,
°C
wind,
m/s
gust,
m/s
humid.,
%
clouds,
%
prec.,
mm/h
press.,
hPa
HPBL,
m
27 january, thu
thu2700:00−8nnw1188100 0.1 101814
03:00−9wsw239599 0.1 101882
06:00−13w2397100 0.0 101839
09:00−18ssw2210099 0.1 101912
12:00−11ssw3694100 0.0 1018229
15:00−9s4793100 0.0 1016330
18:00−14s399870 0.0 1015138
21:00−13s4129685 0.0 1014234
28 january, fri
fri2800:00−11s5139589 0.2 1012314
03:00−9s5129589 0.4 1010323
06:00−8s61395100 0.2 1007333
09:00−7s61495100 0.9 1006424
12:00−4s61296100 0.8 1004498
15:00−2s51196100 1.6 1003563
18:00−1ssw4109683 0.4 1002428
21:00−1ssw4997100 0.6 1002441
29 january, sat
sat2900:00−1ssw4995100 0.4 1002391
03:00−1ssw499799 0.9 1003418
06:00−3s379873 0.3 1002166
09:00−4s259893 0.4 100498
12:00−1sw2396100 0.3 1004239
15:000w259898 0.4 1004432
18:00−3wnw51095100 0.3 1006439
21:00−6wnw499483 0.4 1008302
30 january, sun
sun3000:00−9w3697100 0.1 1008129
03:00−6wsw4994100 0.1 1007536
06:00−7ssw61294100 0.0 1002416
09:00−6s81894100 0.4 998720
12:00−4ssw91794100 2.4 993935
15:00−3ssw81695100 3.8 989861
18:00−1ssw7149281 0.5 988684
21:00−1ssw5119597 0.6 987526
31 january, mon
mon3100:00−2s41095100 0.2 986638
03:00−2sse71496100 1.7 984880
06:00−2s61297100 1.5 982711
09:00−1s4897100 2.3 983394
12:000wsw4695100 0.4 984668
15:00−1wnw599499 0.6 986684
18:00−3w61295100 0.3 991569
21:00−7w6139293 0.4 994522